Location: Bennemühlen
(52.5740°N, 9.7135°E)
Time: 00:28:56
(UTC+00:00)

Cosmos 1538 Rocket - Pass Details

Date: 19 May 2025
Orbit: 749 x 788 km, 74.0° (Epoch: 22 June)

Event Time Altitude Azimuth Distance (km) Brightness Sun altitude
Exits shadow 22:50:41 28° 196° (SSW) 1,388 4.8 -17.2°
Maximum altitude 22:53:27 79° 113° (ESE) 771 3.9 -17.3°
Drops below altitude 10° 22:58:37 10° 28° (NNE) 2,281 7.3 -17.3°
Sets 23:00:59 0° 27° (NNE) 3,209 8.3 -17.4°
